<?xml version="1.0" encoding="UTF-8" standalone="no" ?>
<gpx xmlns="http://www.topografix.com/GPX/1/1" xmlns:xsi="http://www.w3.org/2001/XMLSchema-instance" xsi:schemaLocation="http://www.topografix.com/GPX/1/1 http://www.topografix.com/GPX/1/1/gpx.xsd" version="1.1" creator="VisuGPX - https://www.visugpx.com">
  <metadata>
    <name>J5 Rochefort_BordsDeCharente_Ville 9-18km</name>
    <desc><![CDATA[bJZzasAPtF gnerando idor:7196364_20798918]]></desc>
  </metadata>
  <trk>
    <name><![CDATA[Rochefort_BordCharenteEtVille_18km-7196364]]></name>
    <desc><![CDATA[WE GNE le 25/03/2017]]></desc>
    <extensions>
      <line xmlns="http://www.topografix.com/GPX/gpx_style/0/2">
        <color>0000FF</color>
        <width>4</width>
      </line>
    </extensions>
    <trkseg>
      <trkpt lat="45.92648" lon="-0.94968">
        <ele>5</ele>
        <time>2023-11-11T19:10:27Z</time>
        <extensions>
          <visugpx:TrkExtension xmlns:visugpx="https://www.visugpx.com/editgpx/">
            <visugpx:node>1</visugpx:node>
            </visugpx:TrkExtension>
        </extensions>
      </trkpt>
      <trkpt lat="45.92655" lon="-0.94942">
        <ele>4</ele>
        <time>2023-11-11T19:10:53Z</time>
      </trkpt>
      <trkpt lat="45.92639" lon="-0.94928">
        <ele>4</ele>
        <time>2023-11-11T19:11:18Z</time>
      </trkpt>
      <trkpt lat="45.9253" lon="-0.94924">
        <ele>4</ele>
        <time>2023-11-11T19:13:43Z</time>
      </trkpt>
      <trkpt lat="45.92493" lon="-0.94927">
        <ele>3</ele>
        <time>2023-11-11T19:14:33Z</time>
      </trkpt>
      <trkpt lat="45.92475" lon="-0.94925">
        <ele>3</ele>
        <time>2023-11-11T19:14:57Z</time>
      </trkpt>
      <trkpt lat="45.92458" lon="-0.94935">
        <ele>2</ele>
        <time>2023-11-11T19:15:21Z</time>
      </trkpt>
      <trkpt lat="45.9244" lon="-0.9494">
        <ele>2</ele>
        <time>2023-11-11T19:15:46Z</time>
      </trkpt>
      <trkpt lat="45.92423" lon="-0.9495">
        <ele>2</ele>
        <time>2023-11-11T19:16:10Z</time>
      </trkpt>
      <trkpt lat="45.92384" lon="-0.94947">
        <ele>1</ele>
        <time>2023-11-11T19:17:03Z</time>
      </trkpt>
      <trkpt lat="45.92369" lon="-0.94963">
        <ele>1</ele>
        <time>2023-11-11T19:17:27Z</time>
      </trkpt>
      <trkpt lat="45.92337" lon="-0.94988">
        <ele>1</ele>
        <time>2023-11-11T19:18:16Z</time>
      </trkpt>
      <trkpt lat="45.9231" lon="-0.95024">
        <ele>1</ele>
        <time>2023-11-11T19:19:05Z</time>
      </trkpt>
      <trkpt lat="45.92313" lon="-0.95051">
        <ele>2</ele>
        <time>2023-11-11T19:19:31Z</time>
      </trkpt>
      <trkpt lat="45.9232" lon="-0.95078">
        <ele>2</ele>
        <time>2023-11-11T19:19:57Z</time>
      </trkpt>
      <trkpt lat="45.9233" lon="-0.95101">
        <ele>2</ele>
        <time>2023-11-11T19:20:23Z</time>
      </trkpt>
      <trkpt lat="45.92322" lon="-0.95125">
        <ele>2</ele>
        <time>2023-11-11T19:20:47Z</time>
      </trkpt>
      <trkpt lat="45.92268" lon="-0.95154">
        <ele>1</ele>
        <time>2023-11-11T19:22:04Z</time>
      </trkpt>
      <trkpt lat="45.92202" lon="-0.95204">
        <ele>3</ele>
        <time>2023-11-11T19:23:44Z</time>
      </trkpt>
      <trkpt lat="45.92183" lon="-0.95209">
        <ele>4</ele>
        <time>2023-11-11T19:24:09Z</time>
      </trkpt>
      <trkpt lat="45.9212" lon="-0.95268">
        <ele>3</ele>
        <time>2023-11-11T19:25:50Z</time>
      </trkpt>
      <trkpt lat="45.91982" lon="-0.95409">
        <ele>1</ele>
        <time>2023-11-11T19:29:36Z</time>
      </trkpt>
      <trkpt lat="45.91953" lon="-0.95443">
        <ele>1</ele>
        <time>2023-11-11T19:30:26Z</time>
      </trkpt>
      <trkpt lat="45.919" lon="-0.95519">
        <ele>1</ele>
        <time>2023-11-11T19:32:06Z</time>
      </trkpt>
      <trkpt lat="45.91878" lon="-0.95563">
        <ele>1</ele>
        <time>2023-11-11T19:32:56Z</time>
      </trkpt>
      <trkpt lat="45.91865" lon="-0.95583">
        <ele>1</ele>
        <time>2023-11-11T19:33:21Z</time>
      </trkpt>
      <trkpt lat="45.91837" lon="-0.95651">
        <ele>3</ele>
        <time>2023-11-11T19:34:35Z</time>
      </trkpt>
      <trkpt lat="45.91829" lon="-0.95676">
        <ele>3</ele>
        <time>2023-11-11T19:35:00Z</time>
      </trkpt>
      <trkpt lat="45.91795" lon="-0.95804">
        <ele>2</ele>
        <time>2023-11-11T19:37:07Z</time>
      </trkpt>
      <trkpt lat="45.9178" lon="-0.95911">
        <ele>1</ele>
        <time>2023-11-11T19:38:49Z</time>
      </trkpt>
      <trkpt lat="45.91785" lon="-0.95965">
        <ele>1</ele>
        <time>2023-11-11T19:39:39Z</time>
      </trkpt>
      <trkpt lat="45.91769" lon="-0.95981">
        <ele>3.5</ele>
        <time>2023-11-11T19:40:05Z</time>
      </trkpt>
      <trkpt lat="45.91751" lon="-0.95986">
        <ele>-1</ele>
        <time>2023-11-11T19:40:30Z</time>
      </trkpt>
      <trkpt lat="45.91733" lon="-0.95995">
        <ele>2</ele>
        <time>2023-11-11T19:40:55Z</time>
      </trkpt>
      <trkpt lat="45.91722" lon="-0.96049">
        <ele>1</ele>
        <time>2023-11-11T19:41:47Z</time>
      </trkpt>
      <trkpt lat="45.91739" lon="-0.96061">
        <ele>-1</ele>
        <time>2023-11-11T19:42:13Z</time>
      </trkpt>
      <trkpt lat="45.91775" lon="-0.96065">
        <ele>-1</ele>
        <time>2023-11-11T19:43:01Z</time>
      </trkpt>
      <trkpt lat="45.91813" lon="-0.96065">
        <ele>2</ele>
        <time>2023-11-11T19:43:52Z</time>
      </trkpt>
      <trkpt lat="45.91795" lon="-0.96113">
        <ele>1</ele>
        <time>2023-11-11T19:44:42Z</time>
      </trkpt>
      <trkpt lat="45.91785" lon="-0.96164">
        <ele>1</ele>
        <time>2023-11-11T19:45:31Z</time>
      </trkpt>
      <trkpt lat="45.91775" lon="-0.96186">
        <ele>1</ele>
        <time>2023-11-11T19:45:56Z</time>
      </trkpt>
      <trkpt lat="45.91771" lon="-0.96211">
        <ele>1</ele>
        <time>2023-11-11T19:46:20Z</time>
      </trkpt>
      <trkpt lat="45.91766" lon="-0.96292">
        <ele>2</ele>
        <time>2023-11-11T19:47:35Z</time>
      </trkpt>
      <trkpt lat="45.9176" lon="-0.96344">
        <ele>3</ele>
        <time>2023-11-11T19:48:24Z</time>
      </trkpt>
      <trkpt lat="45.9176" lon="-0.96397">
        <ele>3</ele>
        <time>2023-11-11T19:49:13Z</time>
      </trkpt>
      <trkpt lat="45.91773" lon="-0.96416">
        <ele>2</ele>
        <time>2023-11-11T19:49:38Z</time>
      </trkpt>
      <trkpt lat="45.91809" lon="-0.96426">
        <ele>2</ele>
        <time>2023-11-11T19:50:27Z</time>
      </trkpt>
      <trkpt lat="45.91827" lon="-0.96473">
        <ele>1</ele>
        <time>2023-11-11T19:51:17Z</time>
      </trkpt>
      <trkpt lat="45.91833" lon="-0.96499">
        <ele>1</ele>
        <time>2023-11-11T19:51:42Z</time>
      </trkpt>
      <trkpt lat="45.9183" lon="-0.96526">
        <ele>1</ele>
        <time>2023-11-11T19:52:08Z</time>
      </trkpt>
      <trkpt lat="45.91815" lon="-0.96543">
        <ele>1</ele>
        <time>2023-11-11T19:52:33Z</time>
      </trkpt>
      <trkpt lat="45.91798" lon="-0.96553">
        <ele>1</ele>
        <time>2023-11-11T19:52:58Z</time>
      </trkpt>
      <trkpt lat="45.91801" lon="-0.96579">
        <ele>3</ele>
        <time>2023-11-11T19:53:22Z</time>
      </trkpt>
      <trkpt lat="45.91813" lon="-0.96601">
        <ele>1</ele>
        <time>2023-11-11T19:53:48Z</time>
      </trkpt>
      <trkpt lat="45.91817" lon="-0.96627">
        <ele>2</ele>
        <time>2023-11-11T19:54:13Z</time>
      </trkpt>
      <trkpt lat="45.91809" lon="-0.96651">
        <ele>2</ele>
        <time>2023-11-11T19:54:37Z</time>
      </trkpt>
      <trkpt lat="45.91792" lon="-0.96664">
        <ele>2</ele>
        <time>2023-11-11T19:55:03Z</time>
      </trkpt>
      <trkpt lat="45.91775" lon="-0.96742">
        <ele>2</ele>
        <time>2023-11-11T19:56:19Z</time>
      </trkpt>
      <trkpt lat="45.91771" lon="-0.96796">
        <ele>1</ele>
        <time>2023-11-11T19:57:09Z</time>
      </trkpt>
      <trkpt lat="45.91772" lon="-0.96823">
        <ele>1</ele>
        <time>2023-11-11T19:57:35Z</time>
      </trkpt>
      <trkpt lat="45.91787" lon="-0.96872">
        <ele>1</ele>
        <time>2023-11-11T19:58:24Z</time>
      </trkpt>
      <trkpt lat="45.91824" lon="-0.96864">
        <ele>2</ele>
        <time>2023-11-11T19:59:14Z</time>
      </trkpt>
      <trkpt lat="45.91862" lon="-0.9686">
        <ele>3</ele>
        <time>2023-11-11T20:00:05Z</time>
      </trkpt>
      <trkpt lat="45.9188" lon="-0.96864">
        <ele>3</ele>
        <time>2023-11-11T20:00:29Z</time>
      </trkpt>
      <trkpt lat="45.91892" lon="-0.96884">
        <ele>3</ele>
        <time>2023-11-11T20:00:54Z</time>
      </trkpt>
      <trkpt lat="45.91894" lon="-0.9691">
        <ele>3</ele>
        <time>2023-11-11T20:01:18Z</time>
      </trkpt>
      <trkpt lat="45.9189" lon="-0.96936">
        <ele>2</ele>
        <time>2023-11-11T20:01:43Z</time>
      </trkpt>
      <trkpt lat="45.9189" lon="-0.96962">
        <ele>1</ele>
        <time>2023-11-11T20:02:07Z</time>
      </trkpt>
      <trkpt lat="45.91935" lon="-0.9701">
        <ele>1</ele>
        <time>2023-11-11T20:03:22Z</time>
      </trkpt>
      <trkpt lat="45.91938" lon="-0.97037">
        <ele>1</ele>
        <time>2023-11-11T20:03:47Z</time>
      </trkpt>
      <trkpt lat="45.91951" lon="-0.97085">
        <ele>1</ele>
        <time>2023-11-11T20:04:35Z</time>
      </trkpt>
      <trkpt lat="45.91968" lon="-0.97133">
        <ele>3.2</ele>
        <time>2023-11-11T20:05:25Z</time>
      </trkpt>
      <trkpt lat="45.91968" lon="-0.97161">
        <ele>3.7</ele>
        <time>2023-11-11T20:05:51Z</time>
      </trkpt>
      <trkpt lat="45.9196" lon="-0.97239">
        <ele>2</ele>
        <time>2023-11-11T20:07:04Z</time>
      </trkpt>
      <trkpt lat="45.91939" lon="-0.97247">
        <ele>3</ele>
        <time>2023-11-11T20:07:33Z</time>
      </trkpt>
      <trkpt lat="45.91957" lon="-0.9724">
        <ele>2</ele>
        <time>2023-11-11T20:07:58Z</time>
      </trkpt>
      <trkpt lat="45.91941" lon="-0.9725">
        <ele>3</ele>
        <time>2023-11-11T20:08:21Z</time>
      </trkpt>
      <trkpt lat="45.91952" lon="-0.97227">
        <ele>2</ele>
        <time>2023-11-11T20:08:47Z</time>
      </trkpt>
      <trkpt lat="45.91953" lon="-0.972">
        <ele>1</ele>
        <time>2023-11-11T20:09:12Z</time>
      </trkpt>
      <trkpt lat="45.91959" lon="-0.97174">
        <ele>3.4</ele>
        <time>2023-11-11T20:09:38Z</time>
      </trkpt>
      <trkpt lat="45.91978" lon="-0.97173">
        <ele>3.6</ele>
        <time>2023-11-11T20:10:03Z</time>
      </trkpt>
      <trkpt lat="45.91996" lon="-0.97176">
        <ele>3.1</ele>
        <time>2023-11-11T20:10:27Z</time>
      </trkpt>
      <trkpt lat="45.92012" lon="-0.9719">
        <ele>3</ele>
        <time>2023-11-11T20:10:52Z</time>
      </trkpt>
      <trkpt lat="45.9203" lon="-0.9718">
        <ele>1</ele>
        <time>2023-11-11T20:11:18Z</time>
      </trkpt>
      <trkpt lat="45.92044" lon="-0.97163">
        <ele>2</ele>
        <time>2023-11-11T20:11:42Z</time>
      </trkpt>
      <trkpt lat="45.92062" lon="-0.97158">
        <ele>2</ele>
        <time>2023-11-11T20:12:07Z</time>
      </trkpt>
      <trkpt lat="45.92079" lon="-0.9717">
        <ele>3</ele>
        <time>2023-11-11T20:12:32Z</time>
      </trkpt>
      <trkpt lat="45.92097" lon="-0.97178">
        <ele>3</ele>
        <time>2023-11-11T20:12:57Z</time>
      </trkpt>
      <trkpt lat="45.92134" lon="-0.97186">
        <ele>2</ele>
        <time>2023-11-11T20:13:47Z</time>
      </trkpt>
      <trkpt lat="45.92169" lon="-0.972">
        <ele>3</ele>
        <time>2023-11-11T20:14:36Z</time>
      </trkpt>
      <trkpt lat="45.92186" lon="-0.97212">
        <ele>3</ele>
        <time>2023-11-11T20:15:01Z</time>
      </trkpt>
      <trkpt lat="45.92202" lon="-0.97228">
        <ele>3</ele>
        <time>2023-11-11T20:15:27Z</time>
      </trkpt>
      <trkpt lat="45.92255" lon="-0.97302">
        <ele>2</ele>
        <time>2023-11-11T20:17:06Z</time>
      </trkpt>
      <trkpt lat="45.9233" lon="-0.97381">
        <ele>2</ele>
        <time>2023-11-11T20:19:10Z</time>
      </trkpt>
      <trkpt lat="45.92393" lon="-0.9744">
        <ele>3</ele>
        <time>2023-11-11T20:20:50Z</time>
      </trkpt>
      <trkpt lat="45.92406" lon="-0.97458">
        <ele>3</ele>
        <time>2023-11-11T20:21:14Z</time>
      </trkpt>
      <trkpt lat="45.92417" lon="-0.9748">
        <ele>3</ele>
        <time>2023-11-11T20:21:39Z</time>
      </trkpt>
      <trkpt lat="45.92419" lon="-0.97505">
        <ele>3</ele>
        <time>2023-11-11T20:22:03Z</time>
      </trkpt>
      <trkpt lat="45.92416" lon="-0.97532">
        <ele>3</ele>
        <time>2023-11-11T20:22:28Z</time>
      </trkpt>
      <trkpt lat="45.92404" lon="-0.97552">
        <ele>3</ele>
        <time>2023-11-11T20:22:53Z</time>
      </trkpt>
      <trkpt lat="45.92359" lon="-0.976">
        <ele>1</ele>
        <time>2023-11-11T20:24:07Z</time>
      </trkpt>
      <trkpt lat="45.92327" lon="-0.97626">
        <ele>2</ele>
        <time>2023-11-11T20:24:56Z</time>
      </trkpt>
      <trkpt lat="45.92297" lon="-0.97658">
        <ele>3</ele>
        <time>2023-11-11T20:25:46Z</time>
      </trkpt>
      <trkpt lat="45.92284" lon="-0.97678">
        <ele>3</ele>
        <time>2023-11-11T20:26:12Z</time>
      </trkpt>
      <trkpt lat="45.92254" lon="-0.97712">
        <ele>3</ele>
        <time>2023-11-11T20:27:03Z</time>
      </trkpt>
      <trkpt lat="45.92194" lon="-0.97773">
        <ele>3</ele>
        <time>2023-11-11T20:28:41Z</time>
      </trkpt>
      <trkpt lat="45.9218" lon="-0.9779">
        <ele>3</ele>
        <time>2023-11-11T20:29:05Z</time>
      </trkpt>
      <trkpt lat="45.92163" lon="-0.97803">
        <ele>3</ele>
        <time>2023-11-11T20:29:31Z</time>
      </trkpt>
      <trkpt lat="45.92148" lon="-0.97819">
        <ele>2</ele>
        <time>2023-11-11T20:29:56Z</time>
      </trkpt>
      <trkpt lat="45.92109" lon="-0.97909">
        <ele>2</ele>
        <time>2023-11-11T20:31:34Z</time>
      </trkpt>
      <trkpt lat="45.92097" lon="-0.9796">
        <ele>2</ele>
        <time>2023-11-11T20:32:24Z</time>
      </trkpt>
      <trkpt lat="45.9209" lon="-0.98039">
        <ele>2</ele>
        <time>2023-11-11T20:33:38Z</time>
      </trkpt>
      <trkpt lat="45.92092" lon="-0.98121">
        <ele>2</ele>
        <time>2023-11-11T20:34:54Z</time>
      </trkpt>
      <trkpt lat="45.9211" lon="-0.98332">
        <ele>2</ele>
        <time>2023-11-11T20:38:12Z</time>
      </trkpt>
      <trkpt lat="45.92112" lon="-0.98385">
        <ele>2</ele>
        <time>2023-11-11T20:39:01Z</time>
      </trkpt>
      <trkpt lat="45.9212" lon="-0.98463">
        <ele>2</ele>
        <time>2023-11-11T20:40:14Z</time>
      </trkpt>
      <trkpt lat="45.92147" lon="-0.98593">
        <ele>2</ele>
        <time>2023-11-11T20:42:20Z</time>
      </trkpt>
      <trkpt lat="45.9218" lon="-0.98688">
        <ele>2</ele>
        <time>2023-11-11T20:43:59Z</time>
      </trkpt>
      <trkpt lat="45.922" lon="-0.98733">
        <ele>2</ele>
        <time>2023-11-11T20:44:48Z</time>
      </trkpt>
      <trkpt lat="45.92259" lon="-0.98837">
        <ele>1</ele>
        <time>2023-11-11T20:46:53Z</time>
      </trkpt>
      <trkpt lat="45.92286" lon="-0.98874">
        <ele>2</ele>
        <time>2023-11-11T20:47:43Z</time>
      </trkpt>
      <trkpt lat="45.92343" lon="-0.98941">
        <ele>2</ele>
        <time>2023-11-11T20:49:21Z</time>
      </trkpt>
      <trkpt lat="45.9242" lon="-0.99018">
        <ele>3</ele>
        <time>2023-11-11T20:51:26Z</time>
      </trkpt>
      <trkpt lat="45.92463" lon="-0.99071">
        <ele>3</ele>
        <time>2023-11-11T20:52:42Z</time>
      </trkpt>
      <trkpt lat="45.92522" lon="-0.99137">
        <ele>2</ele>
        <time>2023-11-11T20:54:21Z</time>
      </trkpt>
      <trkpt lat="45.92564" lon="-0.99188">
        <ele>3</ele>
        <time>2023-11-11T20:55:35Z</time>
      </trkpt>
      <trkpt lat="45.92591" lon="-0.99225">
        <ele>2</ele>
        <time>2023-11-11T20:56:24Z</time>
      </trkpt>
      <trkpt lat="45.92642" lon="-0.99299">
        <ele>1</ele>
        <time>2023-11-11T20:58:01Z</time>
      </trkpt>
      <trkpt lat="45.92652" lon="-0.99321">
        <ele>1</ele>
        <time>2023-11-11T20:58:26Z</time>
      </trkpt>
      <trkpt lat="45.92667" lon="-0.99339">
        <ele>2</ele>
        <time>2023-11-11T20:58:52Z</time>
      </trkpt>
      <trkpt lat="45.92745" lon="-0.99456">
        <ele>1</ele>
        <time>2023-11-11T21:01:22Z</time>
      </trkpt>
      <trkpt lat="45.92781" lon="-0.99517">
        <ele>1</ele>
        <time>2023-11-11T21:02:36Z</time>
      </trkpt>
      <trkpt lat="45.92803" lon="-0.9956">
        <ele>2</ele>
        <time>2023-11-11T21:03:26Z</time>
      </trkpt>
      <trkpt lat="45.92905" lon="-0.99781">
        <ele>2</ele>
        <time>2023-11-11T21:07:32Z</time>
      </trkpt>
      <trkpt lat="45.92914" lon="-0.99806">
        <ele>2</ele>
        <time>2023-11-11T21:07:58Z</time>
      </trkpt>
      <trkpt lat="45.92926" lon="-0.99855">
        <ele>2</ele>
        <time>2023-11-11T21:08:46Z</time>
      </trkpt>
      <trkpt lat="45.9296" lon="-0.99951">
        <ele>2</ele>
        <time>2023-11-11T21:10:26Z</time>
      </trkpt>
      <trkpt lat="45.92972" lon="-1.00002">
        <ele>3</ele>
        <time>2023-11-11T21:11:16Z</time>
      </trkpt>
      <trkpt lat="45.92981" lon="-1.00025">
        <ele>2</ele>
        <time>2023-11-11T21:11:41Z</time>
      </trkpt>
      <trkpt lat="45.93034" lon="-1.00195">
        <ele>1</ele>
        <time>2023-11-11T21:14:34Z</time>
      </trkpt>
      <trkpt lat="45.93115" lon="-1.00402">
        <ele>2</ele>
        <time>2023-11-11T21:18:14Z</time>
      </trkpt>
      <trkpt lat="45.93118" lon="-1.00428">
        <ele>2</ele>
        <time>2023-11-11T21:18:39Z</time>
      </trkpt>
      <trkpt lat="45.93115" lon="-1.00455">
        <ele>2</ele>
        <time>2023-11-11T21:19:04Z</time>
      </trkpt>
      <trkpt lat="45.93092" lon="-1.00495">
        <ele>2</ele>
        <time>2023-11-11T21:19:52Z</time>
      </trkpt>
      <trkpt lat="45.93073" lon="-1.00496">
        <ele>2</ele>
        <time>2023-11-11T21:20:18Z</time>
      </trkpt>
      <trkpt lat="45.93091" lon="-1.00492">
        <ele>2</ele>
        <time>2023-11-11T21:20:42Z</time>
      </trkpt>
      <trkpt lat="45.93107" lon="-1.00478">
        <ele>2</ele>
        <time>2023-11-11T21:21:07Z</time>
      </trkpt>
      <trkpt lat="45.93119" lon="-1.00457">
        <ele>2</ele>
        <time>2023-11-11T21:21:32Z</time>
      </trkpt>
      <trkpt lat="45.93134" lon="-1.00443">
        <ele>3</ele>
        <time>2023-11-11T21:21:56Z</time>
      </trkpt>
      <trkpt lat="45.93172" lon="-1.00443">
        <ele>3</ele>
        <time>2023-11-11T21:22:47Z</time>
      </trkpt>
      <trkpt lat="45.9319" lon="-1.00451">
        <ele>3</ele>
        <time>2023-11-11T21:23:12Z</time>
      </trkpt>
      <trkpt lat="45.93207" lon="-1.00462">
        <ele>3</ele>
        <time>2023-11-11T21:23:37Z</time>
      </trkpt>
      <trkpt lat="45.93256" lon="-1.00498">
        <ele>2</ele>
        <time>2023-11-11T21:24:50Z</time>
      </trkpt>
      <trkpt lat="45.93349" lon="-1.00585">
        <ele>3</ele>
        <time>2023-11-11T21:27:18Z</time>
      </trkpt>
      <trkpt lat="45.93382" lon="-1.00607">
        <ele>3</ele>
        <time>2023-11-11T21:28:07Z</time>
      </trkpt>
      <trkpt lat="45.93436" lon="-1.00629">
        <ele>3</ele>
        <time>2023-11-11T21:29:22Z</time>
      </trkpt>
      <trkpt lat="45.93492" lon="-1.00643">
        <ele>3</ele>
        <time>2023-11-11T21:30:37Z</time>
      </trkpt>
      <trkpt lat="45.93548" lon="-1.00649">
        <ele>2</ele>
        <time>2023-11-11T21:31:52Z</time>
      </trkpt>
      <trkpt lat="45.93585" lon="-1.0065">
        <ele>1</ele>
        <time>2023-11-11T21:32:42Z</time>
      </trkpt>
      <trkpt lat="45.93623" lon="-1.00647">
        <ele>1</ele>
        <time>2023-11-11T21:33:33Z</time>
      </trkpt>
      <trkpt lat="45.93714" lon="-1.00617">
        <ele>3</ele>
        <time>2023-11-11T21:35:37Z</time>
      </trkpt>
      <trkpt lat="45.9382" lon="-1.00563">
        <ele>3.5</ele>
        <time>2023-11-11T21:38:07Z</time>
      </trkpt>
      <trkpt lat="45.93904" lon="-1.00502">
        <ele>3</ele>
        <time>2023-11-11T21:40:13Z</time>
      </trkpt>
      <trkpt lat="45.93953" lon="-1.00462">
        <ele>1</ele>
        <time>2023-11-11T21:41:28Z</time>
      </trkpt>
      <trkpt lat="45.93967" lon="-1.00446">
        <ele>2</ele>
        <time>2023-11-11T21:41:52Z</time>
      </trkpt>
      <trkpt lat="45.93977" lon="-1.00423">
        <ele>2</ele>
        <time>2023-11-11T21:42:17Z</time>
      </trkpt>
      <trkpt lat="45.93989" lon="-1.00403">
        <ele>3</ele>
        <time>2023-11-11T21:42:42Z</time>
      </trkpt>
      <trkpt lat="45.94081" lon="-1.0031">
        <ele>2</ele>
        <time>2023-11-11T21:45:12Z</time>
      </trkpt>
      <trkpt lat="45.94427" lon="-0.99909">
        <ele>1</ele>
        <time>2023-11-11T21:55:05Z</time>
      </trkpt>
      <trkpt lat="45.94576" lon="-0.99753">
        <ele>2</ele>
        <time>2023-11-11T21:59:11Z</time>
      </trkpt>
      <trkpt lat="45.94594" lon="-0.99748">
        <ele>2</ele>
        <time>2023-11-11T21:59:35Z</time>
      </trkpt>
      <trkpt lat="45.94605" lon="-0.99769">
        <ele>2</ele>
        <time>2023-11-11T21:59:59Z</time>
      </trkpt>
      <trkpt lat="45.94639" lon="-0.9979">
        <ele>1</ele>
        <time>2023-11-11T22:00:49Z</time>
      </trkpt>
      <trkpt lat="45.94691" lon="-0.99756">
        <ele>1</ele>
        <time>2023-11-11T22:02:05Z</time>
      </trkpt>
      <trkpt lat="45.94774" lon="-0.99697">
        <ele>3.9</ele>
        <time>2023-11-11T22:04:09Z</time>
      </trkpt>
      <trkpt lat="45.94809" lon="-0.99679">
        <ele>-1</ele>
        <time>2023-11-11T22:04:58Z</time>
      </trkpt>
      <trkpt lat="45.94862" lon="-0.99647">
        <ele>3.1</ele>
        <time>2023-11-11T22:06:15Z</time>
      </trkpt>
      <trkpt lat="45.9488" lon="-0.99641">
        <ele>3.1</ele>
        <time>2023-11-11T22:06:40Z</time>
      </trkpt>
      <trkpt lat="45.94934" lon="-0.99614">
        <ele>1</ele>
        <time>2023-11-11T22:07:56Z</time>
      </trkpt>
      <trkpt lat="45.94987" lon="-0.99591">
        <ele>1</ele>
        <time>2023-11-11T22:09:10Z</time>
      </trkpt>
      <trkpt lat="45.94999" lon="-0.9957">
        <ele>1</ele>
        <time>2023-11-11T22:09:35Z</time>
      </trkpt>
      <trkpt lat="45.9499" lon="-0.9952">
        <ele>2</ele>
        <time>2023-11-11T22:10:23Z</time>
      </trkpt>
      <trkpt lat="45.9501" lon="-0.99499">
        <ele>2</ele>
        <time>2023-11-11T22:10:56Z</time>
      </trkpt>
      <trkpt lat="45.94996" lon="-0.99482">
        <ele>2</ele>
        <time>2023-11-11T22:11:20Z</time>
      </trkpt>
      <trkpt lat="45.94985" lon="-0.99461">
        <ele>2</ele>
        <time>2023-11-11T22:11:45Z</time>
      </trkpt>
      <trkpt lat="45.94976" lon="-0.99408">
        <ele>3</ele>
        <time>2023-11-11T22:12:35Z</time>
      </trkpt>
      <trkpt lat="45.94946" lon="-0.99342">
        <ele>3</ele>
        <time>2023-11-11T22:13:49Z</time>
      </trkpt>
      <trkpt lat="45.94893" lon="-0.99202">
        <ele>4</ele>
        <time>2023-11-11T22:16:16Z</time>
      </trkpt>
      <trkpt lat="45.94879" lon="-0.99153">
        <ele>5</ele>
        <time>2023-11-11T22:17:06Z</time>
      </trkpt>
      <trkpt lat="45.94859" lon="-0.99107">
        <ele>6</ele>
        <time>2023-11-11T22:17:56Z</time>
      </trkpt>
      <trkpt lat="45.94842" lon="-0.99095">
        <ele>6</ele>
        <time>2023-11-11T22:18:21Z</time>
      </trkpt>
      <trkpt lat="45.94808" lon="-0.9912">
        <ele>6</ele>
        <time>2023-11-11T22:19:12Z</time>
      </trkpt>
      <trkpt lat="45.94791" lon="-0.99128">
        <ele>5</ele>
        <time>2023-11-11T22:19:36Z</time>
      </trkpt>
      <trkpt lat="45.94772" lon="-0.99133">
        <ele>5</ele>
        <time>2023-11-11T22:20:02Z</time>
      </trkpt>
      <trkpt lat="45.94739" lon="-0.99157">
        <ele>4</ele>
        <time>2023-11-11T22:20:51Z</time>
      </trkpt>
      <trkpt lat="45.94721" lon="-0.99163">
        <ele>3</ele>
        <time>2023-11-11T22:21:16Z</time>
      </trkpt>
      <trkpt lat="45.94668" lon="-0.99195">
        <ele>2</ele>
        <time>2023-11-11T22:22:33Z</time>
      </trkpt>
      <trkpt lat="45.9465" lon="-0.99195">
        <ele>1</ele>
        <time>2023-11-11T22:22:57Z</time>
      </trkpt>
      <trkpt lat="45.94575" lon="-0.99182">
        <ele>3</ele>
        <time>2023-11-11T22:24:37Z</time>
      </trkpt>
      <trkpt lat="45.94538" lon="-0.99173">
        <ele>3.1</ele>
        <time>2023-11-11T22:25:27Z</time>
      </trkpt>
      <trkpt lat="45.94465" lon="-0.99163">
        <ele>1</ele>
        <time>2023-11-11T22:27:05Z</time>
      </trkpt>
      <trkpt lat="45.9443" lon="-0.99178">
        <ele>2</ele>
        <time>2023-11-11T22:27:54Z</time>
      </trkpt>
      <trkpt lat="45.94416" lon="-0.9916">
        <ele>2</ele>
        <time>2023-11-11T22:28:19Z</time>
      </trkpt>
      <trkpt lat="45.94359" lon="-0.99055">
        <ele>2</ele>
        <time>2023-11-11T22:30:23Z</time>
      </trkpt>
      <trkpt lat="45.94338" lon="-0.99011">
        <ele>2</ele>
        <time>2023-11-11T22:31:12Z</time>
      </trkpt>
      <trkpt lat="45.94309" lon="-0.98941">
        <ele>3</ele>
        <time>2023-11-11T22:32:28Z</time>
      </trkpt>
      <trkpt lat="45.94294" lon="-0.98925">
        <ele>3</ele>
        <time>2023-11-11T22:32:53Z</time>
      </trkpt>
      <trkpt lat="45.94229" lon="-0.98872">
        <ele>3</ele>
        <time>2023-11-11T22:34:32Z</time>
      </trkpt>
      <trkpt lat="45.94184" lon="-0.98828">
        <ele>3</ele>
        <time>2023-11-11T22:35:45Z</time>
      </trkpt>
      <trkpt lat="45.9417" lon="-0.98809">
        <ele>4</ele>
        <time>2023-11-11T22:36:11Z</time>
      </trkpt>
      <trkpt lat="45.94152" lon="-0.988">
        <ele>3</ele>
        <time>2023-11-11T22:36:36Z</time>
      </trkpt>
      <trkpt lat="45.94134" lon="-0.98795">
        <ele>3</ele>
        <time>2023-11-11T22:37:01Z</time>
      </trkpt>
      <trkpt lat="45.94118" lon="-0.98782">
        <ele>3</ele>
        <time>2023-11-11T22:37:25Z</time>
      </trkpt>
      <trkpt lat="45.94118" lon="-0.98755">
        <ele>3</ele>
        <time>2023-11-11T22:37:50Z</time>
      </trkpt>
      <trkpt lat="45.94112" lon="-0.98731">
        <ele>3</ele>
        <time>2023-11-11T22:38:14Z</time>
      </trkpt>
      <trkpt lat="45.94096" lon="-0.98716">
        <ele>2</ele>
        <time>2023-11-11T22:38:39Z</time>
      </trkpt>
      <trkpt lat="45.94031" lon="-0.98667">
        <ele>2</ele>
        <time>2023-11-11T22:40:17Z</time>
      </trkpt>
      <trkpt lat="45.93983" lon="-0.98624">
        <ele>3</ele>
        <time>2023-11-11T22:41:33Z</time>
      </trkpt>
      <trkpt lat="45.93968" lon="-0.98607">
        <ele>3</ele>
        <time>2023-11-11T22:41:58Z</time>
      </trkpt>
      <trkpt lat="45.9392" lon="-0.98569">
        <ele>2</ele>
        <time>2023-11-11T22:43:11Z</time>
      </trkpt>
      <trkpt lat="45.93885" lon="-0.98546">
        <ele>2</ele>
        <time>2023-11-11T22:44:03Z</time>
      </trkpt>
      <trkpt lat="45.93846" lon="-0.98489">
        <ele>3</ele>
        <time>2023-11-11T22:45:17Z</time>
      </trkpt>
      <trkpt lat="45.93817" lon="-0.98457">
        <ele>4</ele>
        <time>2023-11-11T22:46:06Z</time>
      </trkpt>
      <trkpt lat="45.93798" lon="-0.98453">
        <ele>4</ele>
        <time>2023-11-11T22:46:31Z</time>
      </trkpt>
      <trkpt lat="45.93779" lon="-0.98453">
        <ele>4</ele>
        <time>2023-11-11T22:46:57Z</time>
      </trkpt>
      <trkpt lat="45.93761" lon="-0.98456">
        <ele>4</ele>
        <time>2023-11-11T22:47:21Z</time>
      </trkpt>
      <trkpt lat="45.93746" lon="-0.9844">
        <ele>4</ele>
        <time>2023-11-11T22:47:46Z</time>
      </trkpt>
      <trkpt lat="45.93757" lon="-0.98389">
        <ele>4</ele>
        <time>2023-11-11T22:48:35Z</time>
      </trkpt>
      <trkpt lat="45.93753" lon="-0.98362">
        <ele>3</ele>
        <time>2023-11-11T22:49:01Z</time>
      </trkpt>
      <trkpt lat="45.93727" lon="-0.98326">
        <ele>3</ele>
        <time>2023-11-11T22:49:49Z</time>
      </trkpt>
      <trkpt lat="45.93725" lon="-0.98299">
        <ele>3</ele>
        <time>2023-11-11T22:50:14Z</time>
      </trkpt>
      <trkpt lat="45.93646" lon="-0.98186">
        <ele>3</ele>
        <time>2023-11-11T22:52:43Z</time>
      </trkpt>
      <trkpt lat="45.93621" lon="-0.98145">
        <ele>4</ele>
        <time>2023-11-11T22:53:34Z</time>
      </trkpt>
      <trkpt lat="45.93578" lon="-0.98092">
        <ele>3</ele>
        <time>2023-11-11T22:54:49Z</time>
      </trkpt>
      <trkpt lat="45.93528" lon="-0.98011">
        <ele>2</ele>
        <time>2023-11-11T22:56:30Z</time>
      </trkpt>
      <trkpt lat="45.93506" lon="-0.97968">
        <ele>1</ele>
        <time>2023-11-11T22:57:19Z</time>
      </trkpt>
      <trkpt lat="45.93497" lon="-0.97945">
        <ele>1</ele>
        <time>2023-11-11T22:57:44Z</time>
      </trkpt>
      <trkpt lat="45.93484" lon="-0.97925">
        <ele>1</ele>
        <time>2023-11-11T22:58:09Z</time>
      </trkpt>
      <trkpt lat="45.93469" lon="-0.97877">
        <ele>2</ele>
        <time>2023-11-11T22:58:58Z</time>
      </trkpt>
      <trkpt lat="45.93458" lon="-0.97855">
        <ele>3</ele>
        <time>2023-11-11T22:59:23Z</time>
      </trkpt>
      <trkpt lat="45.93441" lon="-0.97808">
        <ele>4</ele>
        <time>2023-11-11T23:00:12Z</time>
      </trkpt>
      <trkpt lat="45.93421" lon="-0.97762">
        <ele>5</ele>
        <time>2023-11-11T23:01:03Z</time>
      </trkpt>
      <trkpt lat="45.93414" lon="-0.97737">
        <ele>5</ele>
        <time>2023-11-11T23:01:28Z</time>
      </trkpt>
      <trkpt lat="45.93373" lon="-0.97649">
        <ele>5</ele>
        <time>2023-11-11T23:03:06Z</time>
      </trkpt>
      <trkpt lat="45.93325" lon="-0.97534">
        <ele>5</ele>
        <time>2023-11-11T23:05:11Z</time>
      </trkpt>
      <trkpt lat="45.93285" lon="-0.97446">
        <ele>6</ele>
        <time>2023-11-11T23:06:48Z</time>
      </trkpt>
      <trkpt lat="45.93273" lon="-0.97425">
        <ele>6</ele>
        <time>2023-11-11T23:07:13Z</time>
      </trkpt>
      <trkpt lat="45.93266" lon="-0.97399">
        <ele>6</ele>
        <time>2023-11-11T23:07:39Z</time>
      </trkpt>
      <trkpt lat="45.93235" lon="-0.97334">
        <ele>6</ele>
        <time>2023-11-11T23:08:52Z</time>
      </trkpt>
      <trkpt lat="45.93227" lon="-0.9731">
        <ele>6</ele>
        <time>2023-11-11T23:09:17Z</time>
      </trkpt>
      <trkpt lat="45.93214" lon="-0.97291">
        <ele>6</ele>
        <time>2023-11-11T23:09:42Z</time>
      </trkpt>
      <trkpt lat="45.93204" lon="-0.97269">
        <ele>6</ele>
        <time>2023-11-11T23:10:06Z</time>
      </trkpt>
      <trkpt lat="45.93198" lon="-0.97244">
        <ele>6</ele>
        <time>2023-11-11T23:10:31Z</time>
      </trkpt>
      <trkpt lat="45.93189" lon="-0.97221">
        <ele>5</ele>
        <time>2023-11-11T23:10:55Z</time>
      </trkpt>
      <trkpt lat="45.93167" lon="-0.97178">
        <ele>5</ele>
        <time>2023-11-11T23:11:45Z</time>
      </trkpt>
      <trkpt lat="45.93162" lon="-0.97152">
        <ele>5</ele>
        <time>2023-11-11T23:12:10Z</time>
      </trkpt>
      <trkpt lat="45.93145" lon="-0.97105">
        <ele>4</ele>
        <time>2023-11-11T23:12:59Z</time>
      </trkpt>
      <trkpt lat="45.93148" lon="-0.97079">
        <ele>4</ele>
        <time>2023-11-11T23:13:23Z</time>
      </trkpt>
      <trkpt lat="45.93162" lon="-0.97062">
        <ele>4</ele>
        <time>2023-11-11T23:13:48Z</time>
      </trkpt>
      <trkpt lat="45.93199" lon="-0.96996">
        <ele>3</ele>
        <time>2023-11-11T23:15:07Z</time>
      </trkpt>
      <trkpt lat="45.93261" lon="-0.96833">
        <ele>4</ele>
        <time>2023-11-11T23:17:59Z</time>
      </trkpt>
      <trkpt lat="45.93274" lon="-0.96814">
        <ele>4</ele>
        <time>2023-11-11T23:18:24Z</time>
      </trkpt>
      <trkpt lat="45.93291" lon="-0.96804">
        <ele>4</ele>
        <time>2023-11-11T23:18:48Z</time>
      </trkpt>
      <trkpt lat="45.93309" lon="-0.96799">
        <ele>4</ele>
        <time>2023-11-11T23:19:13Z</time>
      </trkpt>
      <trkpt lat="45.93328" lon="-0.9679">
        <ele>4</ele>
        <time>2023-11-11T23:19:39Z</time>
      </trkpt>
      <trkpt lat="45.93344" lon="-0.96776">
        <ele>4</ele>
        <time>2023-11-11T23:20:04Z</time>
      </trkpt>
      <trkpt lat="45.93369" lon="-0.96738">
        <ele>4</ele>
        <time>2023-11-11T23:20:53Z</time>
      </trkpt>
      <trkpt lat="45.93387" lon="-0.96692">
        <ele>4</ele>
        <time>2023-11-11T23:21:42Z</time>
      </trkpt>
      <trkpt lat="45.9342" lon="-0.96668">
        <ele>5</ele>
        <time>2023-11-11T23:22:31Z</time>
      </trkpt>
      <trkpt lat="45.93434" lon="-0.9665">
        <ele>6</ele>
        <time>2023-11-11T23:22:56Z</time>
      </trkpt>
      <trkpt lat="45.93451" lon="-0.96639">
        <ele>7</ele>
        <time>2023-11-11T23:23:21Z</time>
      </trkpt>
      <trkpt lat="45.93466" lon="-0.96625">
        <ele>7</ele>
        <time>2023-11-11T23:23:45Z</time>
      </trkpt>
      <trkpt lat="45.93495" lon="-0.96591">
        <ele>10</ele>
        <time>2023-11-11T23:24:35Z</time>
      </trkpt>
      <trkpt lat="45.93512" lon="-0.96577">
        <ele>10</ele>
        <time>2023-11-11T23:25:01Z</time>
      </trkpt>
      <trkpt lat="45.93517" lon="-0.9655">
        <ele>10</ele>
        <time>2023-11-11T23:25:27Z</time>
      </trkpt>
      <trkpt lat="45.93504" lon="-0.96531">
        <ele>9</ele>
        <time>2023-11-11T23:25:52Z</time>
      </trkpt>
      <trkpt lat="45.93514" lon="-0.96509">
        <ele>9</ele>
        <time>2023-11-11T23:26:16Z</time>
      </trkpt>
      <trkpt lat="45.93517" lon="-0.96483">
        <ele>10</ele>
        <time>2023-11-11T23:26:41Z</time>
      </trkpt>
      <trkpt lat="45.93515" lon="-0.96457">
        <ele>10</ele>
        <time>2023-11-11T23:27:05Z</time>
      </trkpt>
      <trkpt lat="45.93524" lon="-0.96407">
        <ele>12</ele>
        <time>2023-11-11T23:27:53Z</time>
      </trkpt>
      <trkpt lat="45.93517" lon="-0.96354">
        <ele>13</ele>
        <time>2023-11-11T23:28:43Z</time>
      </trkpt>
      <trkpt lat="45.93514" lon="-0.963">
        <ele>14</ele>
        <time>2023-11-11T23:29:33Z</time>
      </trkpt>
      <trkpt lat="45.93509" lon="-0.96274">
        <ele>15</ele>
        <time>2023-11-11T23:29:58Z</time>
      </trkpt>
      <trkpt lat="45.93493" lon="-0.96258">
        <ele>15</ele>
        <time>2023-11-11T23:30:24Z</time>
      </trkpt>
      <trkpt lat="45.93475" lon="-0.96254">
        <ele>15</ele>
        <time>2023-11-11T23:30:49Z</time>
      </trkpt>
      <trkpt lat="45.93457" lon="-0.96255">
        <ele>15</ele>
        <time>2023-11-11T23:31:13Z</time>
      </trkpt>
      <trkpt lat="45.93422" lon="-0.96266">
        <ele>15</ele>
        <time>2023-11-11T23:32:00Z</time>
      </trkpt>
      <trkpt lat="45.93401" lon="-0.9627">
        <ele>14</ele>
        <time>2023-11-11T23:32:29Z</time>
      </trkpt>
      <trkpt lat="45.93456" lon="-0.96265">
        <ele>15</ele>
        <time>2023-11-11T23:33:42Z</time>
      </trkpt>
      <trkpt lat="45.93474" lon="-0.96255">
        <ele>15</ele>
        <time>2023-11-11T23:34:08Z</time>
      </trkpt>
      <trkpt lat="45.93492" lon="-0.96252">
        <ele>15</ele>
        <time>2023-11-11T23:34:32Z</time>
      </trkpt>
      <trkpt lat="45.9351" lon="-0.96254">
        <ele>15</ele>
        <time>2023-11-11T23:34:56Z</time>
      </trkpt>
      <trkpt lat="45.93527" lon="-0.96242">
        <ele>15</ele>
        <time>2023-11-11T23:35:22Z</time>
      </trkpt>
      <trkpt lat="45.93546" lon="-0.96237">
        <ele>14</ele>
        <time>2023-11-11T23:35:47Z</time>
      </trkpt>
      <trkpt lat="45.93559" lon="-0.96256">
        <ele>14</ele>
        <time>2023-11-11T23:36:12Z</time>
      </trkpt>
      <trkpt lat="45.93577" lon="-0.96302">
        <ele>14</ele>
        <time>2023-11-11T23:37:01Z</time>
      </trkpt>
      <trkpt lat="45.93574" lon="-0.96328">
        <ele>14</ele>
        <time>2023-11-11T23:37:25Z</time>
      </trkpt>
      <trkpt lat="45.9356" lon="-0.9628">
        <ele>14</ele>
        <time>2023-11-11T23:38:14Z</time>
      </trkpt>
      <trkpt lat="45.93565" lon="-0.96253">
        <ele>14</ele>
        <time>2023-11-11T23:38:40Z</time>
      </trkpt>
      <trkpt lat="45.93581" lon="-0.96241">
        <ele>14</ele>
        <time>2023-11-11T23:39:04Z</time>
      </trkpt>
      <trkpt lat="45.93599" lon="-0.96236">
        <ele>14</ele>
        <time>2023-11-11T23:39:28Z</time>
      </trkpt>
      <trkpt lat="45.93618" lon="-0.96236">
        <ele>14</ele>
        <time>2023-11-11T23:39:54Z</time>
      </trkpt>
      <trkpt lat="45.93629" lon="-0.96215">
        <ele>14</ele>
        <time>2023-11-11T23:40:18Z</time>
      </trkpt>
      <trkpt lat="45.93657" lon="-0.9618">
        <ele>13</ele>
        <time>2023-11-11T23:41:08Z</time>
      </trkpt>
      <trkpt lat="45.93668" lon="-0.96159">
        <ele>13</ele>
        <time>2023-11-11T23:41:32Z</time>
      </trkpt>
      <trkpt lat="45.93699" lon="-0.96189">
        <ele>14</ele>
        <time>2023-11-11T23:42:22Z</time>
      </trkpt>
      <trkpt lat="45.93711" lon="-0.9621">
        <ele>14</ele>
        <time>2023-11-11T23:42:47Z</time>
      </trkpt>
      <trkpt lat="45.9372" lon="-0.96233">
        <ele>14</ele>
        <time>2023-11-11T23:43:12Z</time>
      </trkpt>
      <trkpt lat="45.93738" lon="-0.96244">
        <ele>14</ele>
        <time>2023-11-11T23:43:38Z</time>
      </trkpt>
      <trkpt lat="45.93749" lon="-0.96223">
        <ele>14</ele>
        <time>2023-11-11T23:44:02Z</time>
      </trkpt>
      <trkpt lat="45.93728" lon="-0.96224">
        <ele>14</ele>
        <time>2023-11-11T23:44:30Z</time>
      </trkpt>
      <trkpt lat="45.93737" lon="-0.96202">
        <ele>14</ele>
        <time>2023-11-11T23:44:54Z</time>
      </trkpt>
      <trkpt lat="45.93774" lon="-0.96195">
        <ele>14</ele>
        <time>2023-11-11T23:45:44Z</time>
      </trkpt>
      <trkpt lat="45.93789" lon="-0.96181">
        <ele>15</ele>
        <time>2023-11-11T23:46:07Z</time>
      </trkpt>
      <trkpt lat="45.93808" lon="-0.96185">
        <ele>15</ele>
        <time>2023-11-11T23:46:33Z</time>
      </trkpt>
      <trkpt lat="45.93845" lon="-0.96178">
        <ele>16</ele>
        <time>2023-11-11T23:47:23Z</time>
      </trkpt>
      <trkpt lat="45.93863" lon="-0.96186">
        <ele>16</ele>
        <time>2023-11-11T23:47:48Z</time>
      </trkpt>
      <trkpt lat="45.93898" lon="-0.9617">
        <ele>17</ele>
        <time>2023-11-11T23:48:37Z</time>
      </trkpt>
      <trkpt lat="45.93919" lon="-0.96171">
        <ele>18</ele>
        <time>2023-11-11T23:49:05Z</time>
      </trkpt>
      <trkpt lat="45.93938" lon="-0.96163">
        <ele>18</ele>
        <time>2023-11-11T23:49:31Z</time>
      </trkpt>
      <trkpt lat="45.93956" lon="-0.9616">
        <ele>18</ele>
        <time>2023-11-11T23:49:56Z</time>
      </trkpt>
      <trkpt lat="45.93974" lon="-0.96152">
        <ele>18</ele>
        <time>2023-11-11T23:50:21Z</time>
      </trkpt>
      <trkpt lat="45.94029" lon="-0.96141">
        <ele>18</ele>
        <time>2023-11-11T23:51:35Z</time>
      </trkpt>
      <trkpt lat="45.94048" lon="-0.96143">
        <ele>18</ele>
        <time>2023-11-11T23:52:00Z</time>
      </trkpt>
      <trkpt lat="45.94062" lon="-0.96159">
        <ele>18</ele>
        <time>2023-11-11T23:52:24Z</time>
      </trkpt>
      <trkpt lat="45.94084" lon="-0.96203">
        <ele>18</ele>
        <time>2023-11-11T23:53:14Z</time>
      </trkpt>
      <trkpt lat="45.9409" lon="-0.96228">
        <ele>19</ele>
        <time>2023-11-11T23:53:39Z</time>
      </trkpt>
      <trkpt lat="45.94104" lon="-0.96246">
        <ele>19</ele>
        <time>2023-11-11T23:54:04Z</time>
      </trkpt>
      <trkpt lat="45.94141" lon="-0.96253">
        <ele>18</ele>
        <time>2023-11-11T23:54:54Z</time>
      </trkpt>
      <trkpt lat="45.9415" lon="-0.96276">
        <ele>18</ele>
        <time>2023-11-11T23:55:18Z</time>
      </trkpt>
      <trkpt lat="45.94167" lon="-0.96267">
        <ele>18</ele>
        <time>2023-11-11T23:55:43Z</time>
      </trkpt>
      <trkpt lat="45.94186" lon="-0.96269">
        <ele>18</ele>
        <time>2023-11-11T23:56:08Z</time>
      </trkpt>
      <trkpt lat="45.94195" lon="-0.96247">
        <ele>18</ele>
        <time>2023-11-11T23:56:32Z</time>
      </trkpt>
      <trkpt lat="45.94196" lon="-0.96221">
        <ele>17</ele>
        <time>2023-11-11T23:56:56Z</time>
      </trkpt>
      <trkpt lat="45.94209" lon="-0.96204">
        <ele>17</ele>
        <time>2023-11-11T23:57:19Z</time>
      </trkpt>
      <trkpt lat="45.94246" lon="-0.96196">
        <ele>16</ele>
        <time>2023-11-11T23:58:09Z</time>
      </trkpt>
      <trkpt lat="45.9426" lon="-0.9618">
        <ele>16</ele>
        <time>2023-11-11T23:58:33Z</time>
      </trkpt>
      <trkpt lat="45.9427" lon="-0.9613">
        <ele>15</ele>
        <time>2023-11-11T23:59:21Z</time>
      </trkpt>
      <trkpt lat="45.94283" lon="-0.9611">
        <ele>15</ele>
        <time>2023-11-11T23:59:47Z</time>
      </trkpt>
      <trkpt lat="45.94298" lon="-0.96096">
        <ele>14</ele>
        <time>2023-11-12T00:00:11Z</time>
      </trkpt>
      <trkpt lat="45.94307" lon="-0.96073">
        <ele>14</ele>
        <time>2023-11-12T00:00:35Z</time>
      </trkpt>
      <trkpt lat="45.94325" lon="-0.96067">
        <ele>13</ele>
        <time>2023-11-12T00:01:00Z</time>
      </trkpt>
      <trkpt lat="45.94341" lon="-0.96055">
        <ele>12</ele>
        <time>2023-11-12T00:01:24Z</time>
      </trkpt>
      <trkpt lat="45.94348" lon="-0.9603">
        <ele>11</ele>
        <time>2023-11-12T00:01:49Z</time>
      </trkpt>
      <trkpt lat="45.94364" lon="-0.96019">
        <ele>10</ele>
        <time>2023-11-12T00:02:12Z</time>
      </trkpt>
      <trkpt lat="45.94382" lon="-0.96013">
        <ele>9</ele>
        <time>2023-11-12T00:02:37Z</time>
      </trkpt>
      <trkpt lat="45.94401" lon="-0.96011">
        <ele>8</ele>
        <time>2023-11-12T00:03:03Z</time>
      </trkpt>
      <trkpt lat="45.94419" lon="-0.96014">
        <ele>7</ele>
        <time>2023-11-12T00:03:27Z</time>
      </trkpt>
      <trkpt lat="45.94436" lon="-0.96002">
        <ele>6</ele>
        <time>2023-11-12T00:03:52Z</time>
      </trkpt>
      <trkpt lat="45.94442" lon="-0.95977">
        <ele>6</ele>
        <time>2023-11-12T00:04:17Z</time>
      </trkpt>
      <trkpt lat="45.94439" lon="-0.95951">
        <ele>5</ele>
        <time>2023-11-12T00:04:41Z</time>
      </trkpt>
      <trkpt lat="45.94428" lon="-0.9593">
        <ele>5</ele>
        <time>2023-11-12T00:05:05Z</time>
      </trkpt>
      <trkpt lat="45.94429" lon="-0.95904">
        <ele>4</ele>
        <time>2023-11-12T00:05:30Z</time>
      </trkpt>
      <trkpt lat="45.9444" lon="-0.95883">
        <ele>4</ele>
        <time>2023-11-12T00:05:54Z</time>
      </trkpt>
      <trkpt lat="45.94448" lon="-0.9586">
        <ele>4</ele>
        <time>2023-11-12T00:06:18Z</time>
      </trkpt>
      <trkpt lat="45.94466" lon="-0.95868">
        <ele>4</ele>
        <time>2023-11-12T00:06:43Z</time>
      </trkpt>
      <trkpt lat="45.9448" lon="-0.95885">
        <ele>4</ele>
        <time>2023-11-12T00:07:07Z</time>
      </trkpt>
      <trkpt lat="45.94498" lon="-0.95887">
        <ele>4</ele>
        <time>2023-11-12T00:07:32Z</time>
      </trkpt>
      <trkpt lat="45.94462" lon="-0.9587">
        <ele>4</ele>
        <time>2023-11-12T00:08:22Z</time>
      </trkpt>
      <trkpt lat="45.94443" lon="-0.95868">
        <ele>4</ele>
        <time>2023-11-12T00:08:47Z</time>
      </trkpt>
      <trkpt lat="45.94429" lon="-0.95851">
        <ele>4</ele>
        <time>2023-11-12T00:09:12Z</time>
      </trkpt>
      <trkpt lat="45.9442" lon="-0.95827">
        <ele>3</ele>
        <time>2023-11-12T00:09:37Z</time>
      </trkpt>
      <trkpt lat="45.94406" lon="-0.9581">
        <ele>4</ele>
        <time>2023-11-12T00:10:02Z</time>
      </trkpt>
      <trkpt lat="45.94397" lon="-0.95787">
        <ele>4</ele>
        <time>2023-11-12T00:10:26Z</time>
      </trkpt>
      <trkpt lat="45.94409" lon="-0.95767">
        <ele>4</ele>
        <time>2023-11-12T00:10:51Z</time>
      </trkpt>
      <trkpt lat="45.94393" lon="-0.95753">
        <ele>4</ele>
        <time>2023-11-12T00:11:16Z</time>
      </trkpt>
      <trkpt lat="45.94375" lon="-0.95757">
        <ele>5</ele>
        <time>2023-11-12T00:11:40Z</time>
      </trkpt>
      <trkpt lat="45.94359" lon="-0.95742">
        <ele>5</ele>
        <time>2023-11-12T00:12:05Z</time>
      </trkpt>
      <trkpt lat="45.9436" lon="-0.95715">
        <ele>5</ele>
        <time>2023-11-12T00:12:31Z</time>
      </trkpt>
      <trkpt lat="45.94367" lon="-0.95689">
        <ele>4</ele>
        <time>2023-11-12T00:12:56Z</time>
      </trkpt>
      <trkpt lat="45.94335" lon="-0.95662">
        <ele>4</ele>
        <time>2023-11-12T00:13:46Z</time>
      </trkpt>
      <trkpt lat="45.9432" lon="-0.95646">
        <ele>4</ele>
        <time>2023-11-12T00:14:11Z</time>
      </trkpt>
      <trkpt lat="45.94295" lon="-0.95609">
        <ele>4</ele>
        <time>2023-11-12T00:14:59Z</time>
      </trkpt>
      <trkpt lat="45.9428" lon="-0.95593">
        <ele>4</ele>
        <time>2023-11-12T00:15:24Z</time>
      </trkpt>
      <trkpt lat="45.94271" lon="-0.9557">
        <ele>4</ele>
        <time>2023-11-12T00:15:48Z</time>
      </trkpt>
      <trkpt lat="45.94268" lon="-0.95518">
        <ele>4</ele>
        <time>2023-11-12T00:16:37Z</time>
      </trkpt>
      <trkpt lat="45.94262" lon="-0.95493">
        <ele>3</ele>
        <time>2023-11-12T00:17:01Z</time>
      </trkpt>
      <trkpt lat="45.94249" lon="-0.95474">
        <ele>3</ele>
        <time>2023-11-12T00:17:26Z</time>
      </trkpt>
      <trkpt lat="45.94234" lon="-0.95458">
        <ele>3</ele>
        <time>2023-11-12T00:17:51Z</time>
      </trkpt>
      <trkpt lat="45.94222" lon="-0.95408">
        <ele>3</ele>
        <time>2023-11-12T00:18:40Z</time>
      </trkpt>
      <trkpt lat="45.94204" lon="-0.95399">
        <ele>3</ele>
        <time>2023-11-12T00:19:05Z</time>
      </trkpt>
      <trkpt lat="45.94187" lon="-0.95409">
        <ele>4</ele>
        <time>2023-11-12T00:19:30Z</time>
      </trkpt>
      <trkpt lat="45.9413" lon="-0.95411">
        <ele>4</ele>
        <time>2023-11-12T00:20:46Z</time>
      </trkpt>
      <trkpt lat="45.94125" lon="-0.95436">
        <ele>4</ele>
        <time>2023-11-12T00:21:10Z</time>
      </trkpt>
      <trkpt lat="45.94134" lon="-0.95459">
        <ele>5</ele>
        <time>2023-11-12T00:21:35Z</time>
      </trkpt>
      <trkpt lat="45.94117" lon="-0.9545">
        <ele>4</ele>
        <time>2023-11-12T00:21:59Z</time>
      </trkpt>
      <trkpt lat="45.94088" lon="-0.95417">
        <ele>3</ele>
        <time>2023-11-12T00:22:48Z</time>
      </trkpt>
      <trkpt lat="45.94088" lon="-0.95443">
        <ele>4</ele>
        <time>2023-11-12T00:23:12Z</time>
      </trkpt>
      <trkpt lat="45.94072" lon="-0.95457">
        <ele>4</ele>
        <time>2023-11-12T00:23:37Z</time>
      </trkpt>
      <trkpt lat="45.94016" lon="-0.95472">
        <ele>4</ele>
        <time>2023-11-12T00:24:53Z</time>
      </trkpt>
      <trkpt lat="45.93998" lon="-0.95472">
        <ele>4</ele>
        <time>2023-11-12T00:25:17Z</time>
      </trkpt>
      <trkpt lat="45.93979" lon="-0.95477">
        <ele>4</ele>
        <time>2023-11-12T00:25:43Z</time>
      </trkpt>
      <trkpt lat="45.93968" lon="-0.95497">
        <ele>5</ele>
        <time>2023-11-12T00:26:07Z</time>
      </trkpt>
      <trkpt lat="45.93931" lon="-0.955">
        <ele>4</ele>
        <time>2023-11-12T00:26:56Z</time>
      </trkpt>
      <trkpt lat="45.93876" lon="-0.9551">
        <ele>4</ele>
        <time>2023-11-12T00:28:10Z</time>
      </trkpt>
      <trkpt lat="45.93858" lon="-0.95516">
        <ele>3</ele>
        <time>2023-11-12T00:28:35Z</time>
      </trkpt>
      <trkpt lat="45.93842" lon="-0.95529">
        <ele>4</ele>
        <time>2023-11-12T00:28:59Z</time>
      </trkpt>
      <trkpt lat="45.93806" lon="-0.9554">
        <ele>4</ele>
        <time>2023-11-12T00:29:48Z</time>
      </trkpt>
      <trkpt lat="45.93769" lon="-0.95546">
        <ele>5</ele>
        <time>2023-11-12T00:30:38Z</time>
      </trkpt>
      <trkpt lat="45.93753" lon="-0.9556">
        <ele>5</ele>
        <time>2023-11-12T00:31:03Z</time>
      </trkpt>
      <trkpt lat="45.93756" lon="-0.95586">
        <ele>6</ele>
        <time>2023-11-12T00:31:28Z</time>
      </trkpt>
      <trkpt lat="45.93771" lon="-0.95601">
        <ele>7</ele>
        <time>2023-11-12T00:31:52Z</time>
      </trkpt>
      <trkpt lat="45.93779" lon="-0.95624">
        <ele>8</ele>
        <time>2023-11-12T00:32:16Z</time>
      </trkpt>
      <trkpt lat="45.93797" lon="-0.95629">
        <ele>8</ele>
        <time>2023-11-12T00:32:40Z</time>
      </trkpt>
      <trkpt lat="45.93779" lon="-0.95624">
        <ele>8</ele>
        <time>2023-11-12T00:33:05Z</time>
      </trkpt>
      <trkpt lat="45.93762" lon="-0.95635">
        <ele>9</ele>
        <time>2023-11-12T00:33:30Z</time>
      </trkpt>
      <trkpt lat="45.93744" lon="-0.9563">
        <ele>8</ele>
        <time>2023-11-12T00:33:54Z</time>
      </trkpt>
      <trkpt lat="45.93707" lon="-0.95635">
        <ele>5</ele>
        <time>2023-11-12T00:34:44Z</time>
      </trkpt>
      <trkpt lat="45.9367" lon="-0.95644">
        <ele>3</ele>
        <time>2023-11-12T00:35:34Z</time>
      </trkpt>
      <trkpt lat="45.93654" lon="-0.95657">
        <ele>3</ele>
        <time>2023-11-12T00:35:58Z</time>
      </trkpt>
      <trkpt lat="45.93646" lon="-0.95633">
        <ele>2</ele>
        <time>2023-11-12T00:36:23Z</time>
      </trkpt>
      <trkpt lat="45.93625" lon="-0.95588">
        <ele>1</ele>
        <time>2023-11-12T00:37:13Z</time>
      </trkpt>
      <trkpt lat="45.93606" lon="-0.95583">
        <ele>1</ele>
        <time>2023-11-12T00:37:39Z</time>
      </trkpt>
      <trkpt lat="45.93593" lon="-0.95601">
        <ele>1</ele>
        <time>2023-11-12T00:38:03Z</time>
      </trkpt>
      <trkpt lat="45.93574" lon="-0.95597">
        <ele>2</ele>
        <time>2023-11-12T00:38:29Z</time>
      </trkpt>
      <trkpt lat="45.93565" lon="-0.95574">
        <ele>2</ele>
        <time>2023-11-12T00:38:53Z</time>
      </trkpt>
      <trkpt lat="45.93546" lon="-0.95577">
        <ele>4</ele>
        <time>2023-11-12T00:39:19Z</time>
      </trkpt>
      <trkpt lat="45.93533" lon="-0.95596">
        <ele>4</ele>
        <time>2023-11-12T00:39:43Z</time>
      </trkpt>
      <trkpt lat="45.93524" lon="-0.95619">
        <ele>4</ele>
        <time>2023-11-12T00:40:08Z</time>
      </trkpt>
      <trkpt lat="45.93509" lon="-0.95634">
        <ele>5</ele>
        <time>2023-11-12T00:40:32Z</time>
      </trkpt>
      <trkpt lat="45.93497" lon="-0.95653">
        <ele>5</ele>
        <time>2023-11-12T00:40:56Z</time>
      </trkpt>
      <trkpt lat="45.93497" lon="-0.95707">
        <ele>5</ele>
        <time>2023-11-12T00:41:46Z</time>
      </trkpt>
      <trkpt lat="45.93482" lon="-0.95722">
        <ele>5</ele>
        <time>2023-11-12T00:42:11Z</time>
      </trkpt>
      <trkpt lat="45.93491" lon="-0.95744">
        <ele>5</ele>
        <time>2023-11-12T00:42:34Z</time>
      </trkpt>
      <trkpt lat="45.93508" lon="-0.95756">
        <ele>5</ele>
        <time>2023-11-12T00:43:00Z</time>
      </trkpt>
      <trkpt lat="45.9356" lon="-0.95782">
        <ele>7</ele>
        <time>2023-11-12T00:44:13Z</time>
      </trkpt>
      <trkpt lat="45.93542" lon="-0.95779">
        <ele>7</ele>
        <time>2023-11-12T00:44:37Z</time>
      </trkpt>
      <trkpt lat="45.93508" lon="-0.95759">
        <ele>5</ele>
        <time>2023-11-12T00:45:26Z</time>
      </trkpt>
      <trkpt lat="45.93492" lon="-0.95744">
        <ele>5</ele>
        <time>2023-11-12T00:45:52Z</time>
      </trkpt>
      <trkpt lat="45.93477" lon="-0.95728">
        <ele>5</ele>
        <time>2023-11-12T00:46:17Z</time>
      </trkpt>
      <trkpt lat="45.9347" lon="-0.95704">
        <ele>5</ele>
        <time>2023-11-12T00:46:41Z</time>
      </trkpt>
      <trkpt lat="45.93481" lon="-0.95682">
        <ele>5</ele>
        <time>2023-11-12T00:47:06Z</time>
      </trkpt>
      <trkpt lat="45.93503" lon="-0.95607">
        <ele>6</ele>
        <time>2023-11-12T00:48:22Z</time>
      </trkpt>
      <trkpt lat="45.93513" lon="-0.95586">
        <ele>6</ele>
        <time>2023-11-12T00:48:45Z</time>
      </trkpt>
      <trkpt lat="45.93529" lon="-0.95571">
        <ele>5</ele>
        <time>2023-11-12T00:49:11Z</time>
      </trkpt>
      <trkpt lat="45.93531" lon="-0.95545">
        <ele>4</ele>
        <time>2023-11-12T00:49:35Z</time>
      </trkpt>
      <trkpt lat="45.93516" lon="-0.95529">
        <ele>5</ele>
        <time>2023-11-12T00:50:00Z</time>
      </trkpt>
      <trkpt lat="45.93498" lon="-0.9552">
        <ele>5</ele>
        <time>2023-11-12T00:50:25Z</time>
      </trkpt>
      <trkpt lat="45.93443" lon="-0.95507">
        <ele>6</ele>
        <time>2023-11-12T00:51:40Z</time>
      </trkpt>
      <trkpt lat="45.93414" lon="-0.95473">
        <ele>6</ele>
        <time>2023-11-12T00:52:30Z</time>
      </trkpt>
      <trkpt lat="45.93378" lon="-0.95473">
        <ele>5</ele>
        <time>2023-11-12T00:53:18Z</time>
      </trkpt>
      <trkpt lat="45.93346" lon="-0.95443">
        <ele>3</ele>
        <time>2023-11-12T00:54:09Z</time>
      </trkpt>
      <trkpt lat="45.93304" lon="-0.95391">
        <ele>3</ele>
        <time>2023-11-12T00:55:23Z</time>
      </trkpt>
      <trkpt lat="45.93287" lon="-0.95379">
        <ele>3</ele>
        <time>2023-11-12T00:55:48Z</time>
      </trkpt>
      <trkpt lat="45.93273" lon="-0.95362">
        <ele>4</ele>
        <time>2023-11-12T00:56:12Z</time>
      </trkpt>
      <trkpt lat="45.93241" lon="-0.95335">
        <ele>5</ele>
        <time>2023-11-12T00:57:02Z</time>
      </trkpt>
      <trkpt lat="45.93165" lon="-0.95257">
        <ele>3</ele>
        <time>2023-11-12T00:59:06Z</time>
      </trkpt>
      <trkpt lat="45.93116" lon="-0.95221">
        <ele>2</ele>
        <time>2023-11-12T01:00:20Z</time>
      </trkpt>
      <trkpt lat="45.93103" lon="-0.95201">
        <ele>2</ele>
        <time>2023-11-12T01:00:45Z</time>
      </trkpt>
      <trkpt lat="45.93086" lon="-0.95192">
        <ele>2</ele>
        <time>2023-11-12T01:01:09Z</time>
      </trkpt>
      <trkpt lat="45.93055" lon="-0.95163">
        <ele>2</ele>
        <time>2023-11-12T01:01:59Z</time>
      </trkpt>
      <trkpt lat="45.92973" lon="-0.951">
        <ele>2</ele>
        <time>2023-11-12T01:04:03Z</time>
      </trkpt>
      <trkpt lat="45.92936" lon="-0.951">
        <ele>2</ele>
        <time>2023-11-12T01:04:52Z</time>
      </trkpt>
      <trkpt lat="45.92866" lon="-0.95063">
        <ele>3</ele>
        <time>2023-11-12T01:06:32Z</time>
      </trkpt>
      <trkpt lat="45.92851" lon="-0.95046">
        <ele>2</ele>
        <time>2023-11-12T01:06:57Z</time>
      </trkpt>
      <trkpt lat="45.92781" lon="-0.95005">
        <ele>2</ele>
        <time>2023-11-12T01:08:38Z</time>
      </trkpt>
      <trkpt lat="45.92744" lon="-0.95003">
        <ele>2</ele>
        <time>2023-11-12T01:09:28Z</time>
      </trkpt>
      <trkpt lat="45.92725" lon="-0.94999">
        <ele>3</ele>
        <time>2023-11-12T01:09:53Z</time>
      </trkpt>
      <trkpt lat="45.92708" lon="-0.94986">
        <ele>4</ele>
        <time>2023-11-12T01:10:19Z</time>
      </trkpt>
      <trkpt lat="45.9268" lon="-0.94952">
        <ele>4</ele>
        <time>2023-11-12T01:11:08Z</time>
      </trkpt>
      <trkpt lat="45.92661" lon="-0.94952">
        <ele>4</ele>
        <time>2023-11-12T01:11:33Z</time>
      </trkpt>
      <trkpt lat="45.92647" lon="-0.94967">
        <ele>5</ele>
        <time>2023-11-12T01:11:56Z</time>
      </trkpt>
    </trkseg>
  </trk>
</gpx>